Flag Weather past 2 weeks in Scranton, Pennsylvania, U.S.A.

Now
39 °F

Overcast.


Feels Like: 35 °F
Forecast: 38 / 54 °F
Wind: 6 mph from Southwest

Location: Barre - Scranton - Wilkes-Barre / Scranton International Airport

Current Time: Nov 23, 2014 at 1:21:10 AM

Latest Report: Nov 23, 2014 at 12:54 AM


Visibility: 10 mi

Pressure: 30.15 "Hg

Humidity: 41%

Dew point: 17 °F

Location of ScrantonLocation

Historic Weather in Scranton — Graph

°F

Scranton temperature yesterday

Maximum temperature yesterday: 41 °F (at 2:54 PM)
Minimum temperature yesterday: 17 °F (at 6:54 AM)
Average temperature yesterday: 31 °F

Past Weeks' High & Low Weather Summary

 TemperatureHumidityPressure
High64 °F (Nov 10, 1:54 PM)92% (Nov 13, 7:54 PM)30.48 "Hg (Nov 13, 7:54 PM)
Low16 °F (Nov 19, 5:54 AM)28% (Nov 22, 2:54 PM)29.51 "Hg (Nov 17, 2:54 PM)
Average36 °F58%30.05 "Hg
* Reported Nov 7 11:54 PM — Nov 22 11:54 PM, Scranton, Weather by CustomWeather, © 2014

Note: Actual official high and low records may vary slightly from our data, if they occured in-between our weather recording intervals... More about our weather records

Advertising

Scranton weather history for previous 24 hours

 ConditionsComfort  
Time TempWeatherWind HumidityBarometerVisibility
11:54 PM
Nov 22
39 °FPassing clouds.6 mph41%30.17 "Hg10 mi
10:54 PM38 °FMostly cloudy.10 mph43%30.16 "Hg10 mi
9:54 PM37 °FClear.6 mph44%30.17 "Hg10 mi
8:54 PM38 °FOvercast.6 mph45%30.19 "Hg10 mi
7:54 PM38 °FOvercast.6 mph43%30.20 "Hg10 mi
6:54 PM38 °FOvercast.8 mph41%30.21 "Hg10 mi
5:54 PM38 °FMostly cloudy.8 mph43%30.22 "Hg10 mi
4:54 PM39 °FOvercast.9 mph38%30.22 "Hg10 mi
3:54 PM40 °FCloudy.10 mph30%30.22 "Hg10 mi
2:54 PM41 °FMostly cloudy.8 mph28%30.22 "Hg10 mi
1:54 PM39 °FOvercast.10 mph30%30.24 "Hg10 mi
12:54 PM40 °FScattered clouds.13 mph30%30.26 "Hg10 mi
11:54 AM38 °FSunny.14 mph33%30.30 "Hg10 mi
10:54 AM34 °FSunny.10 mph38%30.36 "Hg10 mi
9:54 AM30 °FSunny.10 mph47%30.39 "Hg10 mi
8:54 AM24 °FSunny.6 mph60%30.42 "Hg10 mi
7:54 AM19 °FSunny.7 mph68%30.43 "Hg10 mi
6:54 AM17 °FClear.7 mph70%30.44 "Hg10 mi
5:54 AM19 °FClear.N/A65%30.44 "Hg10 mi
4:54 AM20 °FClear.No wind62%30.44 "Hg10 mi
3:54 AM18 °FClear.5 mph68%30.44 "Hg10 mi
2:54 AM21 °FClear.5 mph62%30.45 "Hg10 mi
1:54 AM21 °FClear.No wind60%30.46 "Hg10 mi
Weather by CustomWeather, © 2014

See weather overviewHow to use our weather pages